Time,TemperatureF,DewpointF,PressureIn,WindDirection,WindDirectionDegrees,WindSpeedMPH,WindSpeedGustMPH,Humidity,HourlyPrecipIn,Conditions,Clouds,dailyrainin,SolarRadiationWatts/m^2,SoftwareType,DateUTC
2013-05-28 00:02:00,56.0,33.0,-100.00,ESE,103,5.0,11.0,42,0.00,,,0.00,0.000000,,2013-05-28 05:02:00,
2013-05-28 00:22:00,54.0,33.0,-100.00,ESE,107,7.0,13.0,44,0.00,,,0.00,0.000000,,2013-05-28 05:22:00,
2013-05-28 00:33:00,54.0,33.0,-100.00,ESE,107,7.0,13.0,44,0.00,,,0.00,0.000000,,2013-05-28 05:33:00,
2013-05-28 00:42:00,54.0,33.0,-100.00,ESE,107,7.0,13.0,44,0.00,,,0.00,0.000000,,2013-05-28 05:42:00,
2013-05-28 00:52:00,54.0,33.0,-100.00,ESE,107,7.0,13.0,44,0.00,,,0.00,0.000000,,2013-05-28 05:52:00,
2013-05-28 01:02:00,54.0,33.0,-100.00,ESE,107,7.0,13.0,44,0.00,,,0.00,0.000000,,2013-05-28 06:02:00,
2013-05-28 01:22:00,50.0,34.0,-100.00,SE,141,5.0,10.0,54,0.00,,,0.00,0.000000,,2013-05-28 06:22:00,
2013-05-28 01:32:00,50.0,34.0,-100.00,SE,141,5.0,10.0,54,0.00,,,0.00,0.000000,,2013-05-28 06:32:00,
2013-05-28 01:42:00,50.0,34.0,-100.00,SE,141,5.0,10.0,54,0.00,,,0.00,0.000000,,2013-05-28 06:42:00,
2013-05-28 01:52:00,50.0,34.0,-100.00,SE,141,5.0,10.0,54,0.00,,,0.00,0.000000,,2013-05-28 06:52:00,
2013-05-28 02:01:00,50.0,34.0,-100.00,SE,141,5.0,10.0,54,0.00,,,0.00,0.000000,,2013-05-28 07:01:00,
2013-05-28 02:22:00,49.0,35.0,-100.00,ESE,115,3.0,5.0,58,0.00,,,0.00,0.000000,,2013-05-28 07:22:00,
2013-05-28 02:32:00,49.0,35.0,-100.00,ESE,115,3.0,5.0,58,0.00,,,0.00,0.000000,,2013-05-28 07:32:00,
2013-05-28 02:42:00,49.0,35.0,-100.00,ESE,115,3.0,5.0,58,0.00,,,0.00,0.000000,,2013-05-28 07:42:00,
2013-05-28 02:52:00,49.0,35.0,-100.00,ESE,115,3.0,5.0,58,0.00,,,0.00,0.000000,,2013-05-28 07:52:00,
2013-05-28 03:02:00,49.0,35.0,-100.00,ESE,115,3.0,5.0,58,0.00,,,0.00,0.000000,,2013-05-28 08:02:00,
2013-05-28 03:22:00,44.0,36.0,-100.00,SE,131,3.0,5.0,73,0.00,,,0.00,0.000000,,2013-05-28 08:22:00,
2013-05-28 03:32:00,44.0,36.0,-100.00,SE,131,3.0,5.0,73,0.00,,,0.00,0.000000,,2013-05-28 08:32:00,
2013-05-28 03:42:00,44.0,36.0,-100.00,SE,131,3.0,5.0,73,0.00,,,0.00,0.000000,,2013-05-28 08:42:00,
2013-05-28 03:52:00,44.0,36.0,-100.00,SE,131,3.0,5.0,73,0.00,,,0.00,0.000000,,2013-05-28 08:52:00,
2013-05-28 04:01:00,44.0,36.0,-100.00,SE,131,3.0,5.0,73,0.00,,,0.00,0.000000,,2013-05-28 09:01:00,
2013-05-28 04:22:00,42.0,35.0,-100.00,East,98,4.0,5.0,75,0.00,,,0.00,0.000000,,2013-05-28 09:22:00,
2013-05-28 04:33:00,42.0,35.0,-100.00,East,98,4.0,5.0,75,0.00,,,0.00,0.000000,,2013-05-28 09:33:00,
2013-05-28 04:43:00,42.0,35.0,-100.00,East,98,4.0,5.0,75,0.00,,,0.00,0.000000,,2013-05-28 09:43:00,
2013-05-28 04:54:00,42.0,35.0,-100.00,East,98,4.0,5.0,75,0.00,,,0.00,0.000000,,2013-05-28 09:54:00,
2013-05-28 05:03:00,42.0,35.0,-100.00,East,98,4.0,5.0,75,0.00,,,0.00,0.000000,,2013-05-28 10:03:00,
2013-05-28 05:23:00,42.0,34.0,-100.00,SE,128,3.0,6.0,72,0.00,,,0.00,0.000000,,2013-05-28 10:23:00,
2013-05-28 05:32:00,42.0,34.0,-100.00,SE,128,3.0,6.0,72,0.00,,,0.00,0.000000,,2013-05-28 10:32:00,
2013-05-28 05:43:00,42.0,34.0,-100.00,SE,128,3.0,6.0,72,0.00,,,0.00,0.000000,,2013-05-28 10:43:00,
2013-05-28 05:53:00,42.0,34.0,-100.00,SE,128,3.0,6.0,72,0.00,,,0.00,0.000000,,2013-05-28 10:53:00,
2013-05-28 06:02:00,42.0,34.0,-100.00,SE,128,3.0,6.0,72,0.00,,,0.00,0.000000,,2013-05-28 11:02:00,
2013-05-28 06:22:00,42.0,38.0,-100.00,NE,52,3.0,4.0,85,0.00,,,0.00,19.000000,,2013-05-28 11:22:00,
2013-05-28 06:32:00,42.0,38.0,-100.00,NE,52,3.0,4.0,85,0.00,,,0.00,19.000000,,2013-05-28 11:32:00,
2013-05-28 06:42:00,42.0,38.0,-100.00,NE,52,3.0,4.0,85,0.00,,,0.00,19.000000,,2013-05-28 11:42:00,
2013-05-28 06:52:00,42.0,38.0,-100.00,NE,52,3.0,4.0,85,0.00,,,0.00,19.000000,,2013-05-28 11:52:00,
2013-05-28 07:01:00,42.0,38.0,-100.00,NE,52,3.0,4.0,85,0.00,,,0.00,19.000000,,2013-05-28 12:01:00,
2013-05-28 07:22:00,46.0,40.0,-100.00,North,2,2.0,5.0,79,0.00,,,0.00,31.000000,,2013-05-28 12:22:00,
2013-05-28 07:32:00,46.0,40.0,-100.00,North,2,2.0,5.0,79,0.00,,,0.00,31.000000,,2013-05-28 12:32:00,
2013-05-28 07:42:00,46.0,40.0,-100.00,North,2,2.0,5.0,79,0.00,,,0.00,31.000000,,2013-05-28 12:42:00,
2013-05-28 07:52:00,46.0,40.0,-100.00,North,2,2.0,5.0,79,0.00,,,0.00,31.000000,,2013-05-28 12:52:00,
2013-05-28 08:01:00,46.0,40.0,-100.00,North,2,2.0,5.0,79,0.00,,,0.00,31.000000,,2013-05-28 13:01:00,
2013-05-28 08:22:00,50.0,39.0,-100.00,East,101,5.0,6.0,67,0.00,,,0.00,64.000000,,2013-05-28 13:22:00,
2013-05-28 08:32:00,50.0,39.0,-100.00,East,101,5.0,6.0,67,0.00,,,0.00,64.000000,,2013-05-28 13:32:00,
2013-05-28 08:42:00,50.0,39.0,-100.00,East,101,5.0,6.0,67,0.00,,,0.00,64.000000,,2013-05-28 13:42:00,
2013-05-28 08:52:00,50.0,39.0,-100.00,East,101,5.0,6.0,67,0.00,,,0.00,64.000000,,2013-05-28 13:52:00,
2013-05-28 09:02:00,50.0,39.0,-100.00,East,101,5.0,6.0,67,0.00,,,0.00,64.000000,,2013-05-28 14:02:00,
2013-05-28 09:22:00,56.0,42.0,-100.00,ESE,110,7.0,12.0,59,0.00,,,0.00,200.000000,,2013-05-28 14:22:00,
2013-05-28 09:32:00,56.0,42.0,-100.00,ESE,110,7.0,12.0,59,0.00,,,0.00,200.000000,,2013-05-28 14:32:00,
2013-05-28 09:42:00,56.0,42.0,-100.00,ESE,110,7.0,12.0,59,0.00,,,0.00,200.000000,,2013-05-28 14:42:00,
2013-05-28 09:52:00,56.0,42.0,-100.00,ESE,110,7.0,12.0,59,0.00,,,0.00,200.000000,,2013-05-28 14:52:00,
2013-05-28 10:01:00,56.0,42.0,-100.00,ESE,110,7.0,12.0,59,0.00,,,0.00,200.000000,,2013-05-28 15:01:00,
2013-05-28 10:21:00,60.0,42.0,-100.00,ESE,112,8.0,14.0,52,0.00,,,0.00,346.000000,,2013-05-28 15:21:00,
2013-05-28 10:33:00,60.0,42.0,-100.00,ESE,112,8.0,14.0,52,0.00,,,0.00,346.000000,,2013-05-28 15:33:00,
2013-05-28 10:43:00,60.0,42.0,-100.00,ESE,112,8.0,14.0,52,0.00,,,0.00,346.000000,,2013-05-28 15:43:00,
2013-05-28 10:53:00,60.0,42.0,-100.00,ESE,112,8.0,14.0,52,0.00,,,0.00,346.000000,,2013-05-28 15:53:00,
2013-05-28 11:03:00,60.0,42.0,-100.00,ESE,112,8.0,14.0,52,0.00,,,0.00,346.000000,,2013-05-28 16:03:00,
2013-05-28 11:23:00,62.0,44.0,-100.00,SE,129,9.0,16.0,51,0.00,,,0.00,370.000000,,2013-05-28 16:23:00,
2013-05-28 11:33:00,62.0,44.0,-100.00,SE,129,9.0,16.0,51,0.00,,,0.00,370.000000,,2013-05-28 16:33:00,
2013-05-28 11:42:00,62.0,44.0,-100.00,SE,129,9.0,16.0,51,0.00,,,0.00,370.000000,,2013-05-28 16:42:00,
2013-05-28 11:52:00,62.0,44.0,-100.00,SE,129,9.0,16.0,51,0.00,,,0.00,370.000000,,2013-05-28 16:52:00,
2013-05-28 12:02:00,62.0,44.0,-100.00,SE,129,9.0,16.0,51,0.00,,,0.00,370.000000,,2013-05-28 17:02:00,
2013-05-28 12:22:00,63.0,43.0,-100.00,SE,134,11.0,20.0,48,0.00,,,0.00,477.000000,,2013-05-28 17:22:00,
2013-05-28 12:32:00,63.0,43.0,-100.00,SE,134,11.0,20.0,48,0.00,,,0.00,477.000000,,2013-05-28 17:32:00,
2013-05-28 12:42:00,63.0,43.0,-100.00,SE,134,11.0,20.0,48,0.00,,,0.00,477.000000,,2013-05-28 17:42:00,
2013-05-28 12:52:00,63.0,43.0,-100.00,SE,134,11.0,20.0,48,0.00,,,0.00,477.000000,,2013-05-28 17:52:00,
2013-05-28 13:01:00,63.0,43.0,-100.00,SE,134,11.0,20.0,48,0.00,,,0.00,477.000000,,2013-05-28 18:01:00,
2013-05-28 13:22:00,64.0,43.0,-100.00,ESE,123,12.0,19.0,47,0.00,,,0.00,469.000000,,2013-05-28 18:22:00,
2013-05-28 13:32:00,64.0,43.0,-100.00,ESE,123,12.0,19.0,47,0.00,,,0.00,469.000000,,2013-05-28 18:32:00,
2013-05-28 13:42:00,64.0,43.0,-100.00,ESE,123,12.0,19.0,47,0.00,,,0.00,469.000000,,2013-05-28 18:42:00,
2013-05-28 13:52:00,64.0,43.0,-100.00,ESE,123,12.0,19.0,47,0.00,,,0.00,469.000000,,2013-05-28 18:52:00,
2013-05-28 14:01:00,64.0,43.0,-100.00,ESE,123,12.0,19.0,47,0.00,,,0.00,469.000000,,2013-05-28 19:01:00,
2013-05-28 14:21:00,67.0,44.0,-100.00,ESE,107,8.0,18.0,44,0.00,,,0.00,746.000000,,2013-05-28 19:21:00,
2013-05-28 14:32:00,67.0,44.0,-100.00,ESE,107,8.0,18.0,44,0.00,,,0.00,746.000000,,2013-05-28 19:32:00,
2013-05-28 14:42:00,67.0,44.0,-100.00,ESE,107,8.0,18.0,44,0.00,,,0.00,746.000000,,2013-05-28 19:42:00,
2013-05-28 14:52:00,67.0,44.0,-100.00,ESE,107,8.0,18.0,44,0.00,,,0.00,746.000000,,2013-05-28 19:52:00,
2013-05-28 15:01:00,67.0,44.0,-100.00,ESE,107,8.0,18.0,44,0.00,,,0.00,746.000000,,2013-05-28 20:01:00,
2013-05-28 15:22:00,68.0,46.0,-100.00,SSE,150,11.0,19.0,45,0.00,,,0.00,801.000000,,2013-05-28 20:22:00,
2013-05-28 15:32:00,68.0,46.0,-100.00,SSE,150,11.0,19.0,45,0.00,,,0.00,801.000000,,2013-05-28 20:32:00,
2013-05-28 15:42:00,68.0,46.0,-100.00,SSE,150,11.0,19.0,45,0.00,,,0.00,801.000000,,2013-05-28 20:42:00,
2013-05-28 15:52:00,68.0,46.0,-100.00,SSE,150,11.0,19.0,45,0.00,,,0.00,801.000000,,2013-05-28 20:52:00,
2013-05-28 16:01:00,68.0,46.0,-100.00,SSE,150,11.0,19.0,45,0.00,,,0.00,801.000000,,2013-05-28 21:01:00,
2013-05-28 16:22:00,69.0,47.0,-100.00,SE,136,11.0,19.0,46,0.00,,,0.00,706.000000,,2013-05-28 21:22:00,
2013-05-28 16:33:00,69.0,47.0,-100.00,SE,136,11.0,19.0,46,0.00,,,0.00,706.000000,,2013-05-28 21:33:00,
2013-05-28 16:43:00,69.0,47.0,-100.00,SE,136,11.0,19.0,46,0.00,,,0.00,706.000000,,2013-05-28 21:43:00,
2013-05-28 16:53:00,69.0,47.0,-100.00,SE,136,11.0,19.0,46,0.00,,,0.00,706.000000,,2013-05-28 21:53:00,
2013-05-28 17:02:00,69.0,47.0,-100.00,SE,136,11.0,19.0,46,0.00,,,0.00,706.000000,,2013-05-28 22:02:00,
2013-05-28 17:22:00,68.0,45.0,-100.00,SE,136,10.0,19.0,44,0.00,,,0.00,588.000000,,2013-05-28 22:22:00,
2013-05-28 17:33:00,68.0,45.0,-100.00,SE,136,10.0,19.0,44,0.00,,,0.00,588.000000,,2013-05-28 22:33:00,
2013-05-28 17:42:00,68.0,45.0,-100.00,SE,136,10.0,19.0,44,0.00,,,0.00,588.000000,,2013-05-28 22:42:00,
2013-05-28 17:52:00,68.0,45.0,-100.00,SE,136,10.0,19.0,44,0.00,,,0.00,588.000000,,2013-05-28 22:52:00,
2013-05-28 18:02:00,68.0,45.0,-100.00,SE,136,10.0,19.0,44,0.00,,,0.00,588.000000,,2013-05-28 23:02:00,
2013-05-28 18:22:00,67.0,44.0,-100.00,SSE,157,11.0,17.0,44,0.00,,,0.00,455.000000,,2013-05-28 23:22:00,
2013-05-28 18:32:00,67.0,44.0,-100.00,SSE,157,11.0,17.0,44,0.00,,,0.00,455.000000,,2013-05-28 23:32:00,
2013-05-28 18:42:00,67.0,44.0,-100.00,SSE,157,11.0,17.0,44,0.00,,,0.00,455.000000,,2013-05-28 23:42:00,
2013-05-28 18:52:00,67.0,44.0,-100.00,SSE,157,11.0,17.0,44,0.00,,,0.00,455.000000,,2013-05-28 23:52:00,
2013-05-28 19:02:00,67.0,44.0,-100.00,SSE,157,11.0,17.0,44,0.00,,,0.00,455.000000,,2013-05-29 00:02:00,
2013-05-28 19:22:00,65.0,44.0,-100.00,SE,144,11.0,16.0,46,0.00,,,0.00,327.000000,,2013-05-29 00:22:00,
2013-05-28 19:32:00,65.0,44.0,-100.00,SE,144,11.0,16.0,46,0.00,,,0.00,327.000000,,2013-05-29 00:32:00,
2013-05-28 19:42:00,65.0,44.0,-100.00,SE,144,11.0,16.0,46,0.00,,,0.00,327.000000,,2013-05-29 00:42:00,
2013-05-28 19:52:00,65.0,44.0,-100.00,SE,144,11.0,16.0,46,0.00,,,0.00,327.000000,,2013-05-29 00:52:00,
2013-05-28 20:01:00,65.0,44.0,-100.00,SE,144,11.0,16.0,46,0.00,,,0.00,327.000000,,2013-05-29 01:01:00,
2013-05-28 20:22:00,62.0,44.0,-100.00,SSE,164,7.0,16.0,51,0.00,,,0.00,162.000000,,2013-05-29 01:22:00,
2013-05-28 20:32:00,62.0,44.0,-100.00,SSE,164,7.0,16.0,51,0.00,,,0.00,162.000000,,2013-05-29 01:32:00,
2013-05-28 20:42:00,62.0,44.0,-100.00,SSE,164,7.0,16.0,51,0.00,,,0.00,162.000000,,2013-05-29 01:42:00,
2013-05-28 20:52:00,62.0,44.0,-100.00,SSE,164,7.0,16.0,51,0.00,,,0.00,162.000000,,2013-05-29 01:52:00,
2013-05-28 21:02:00,62.0,44.0,-100.00,SSE,164,7.0,16.0,51,0.00,,,0.00,162.000000,,2013-05-29 02:02:00,
2013-05-28 21:22:00,57.0,41.0,-100.00,SE,145,6.0,10.0,55,0.00,,,0.00,25.000000,,2013-05-29 02:22:00,
2013-05-28 21:32:00,57.0,41.0,-100.00,SE,145,6.0,10.0,55,0.00,,,0.00,25.000000,,2013-05-29 02:32:00,
2013-05-28 21:42:00,57.0,41.0,-100.00,SE,145,6.0,10.0,55,0.00,,,0.00,25.000000,,2013-05-29 02:42:00,
2013-05-28 21:52:00,57.0,41.0,-100.00,SE,145,6.0,10.0,55,0.00,,,0.00,25.000000,,2013-05-29 02:52:00,
2013-05-28 22:02:00,57.0,41.0,-100.00,SE,145,6.0,10.0,55,0.00,,,0.00,25.000000,,2013-05-29 03:02:00,
2013-05-28 22:22:00,53.0,40.0,-100.00,SSE,149,6.0,8.0,62,0.00,,,0.00,0.000000,,2013-05-29 03:22:00,
2013-05-28 22:33:00,53.0,40.0,-100.00,SSE,149,6.0,8.0,62,0.00,,,0.00,0.000000,,2013-05-29 03:33:00,
2013-05-28 22:43:00,53.0,40.0,-100.00,SSE,149,6.0,8.0,62,0.00,,,0.00,0.000000,,2013-05-29 03:43:00,
2013-05-28 22:53:00,53.0,40.0,-100.00,SSE,149,6.0,8.0,62,0.00,,,0.00,0.000000,,2013-05-29 03:53:00,
2013-05-28 23:02:00,53.0,40.0,-100.00,SSE,149,6.0,8.0,62,0.00,,,0.00,0.000000,,2013-05-29 04:02:00,
2013-05-28 23:23:00,51.0,38.0,-100.00,ESE,120,3.0,9.0,61,0.00,,,0.00,0.000000,,2013-05-29 04:23:00,
2013-05-28 23:33:00,51.0,38.0,-100.00,ESE,120,3.0,9.0,61,0.00,,,0.00,0.000000,,2013-05-29 04:33:00,
2013-05-28 23:42:00,51.0,38.0,-100.00,ESE,120,3.0,9.0,61,0.00,,,0.00,0.000000,,2013-05-29 04:42:00,
2013-05-28 23:52:00,51.0,38.0,-100.00,ESE,120,3.0,9.0,61,0.00,,,0.00,0.000000,,2013-05-29 04:52:00,